Regional Weather Roundup
Issued by NWS

Home | Current Version | Previous Version | Text Only | Print | Product List | Glossary Off
Versions: 1 2 3 4 5 6 7 8 9 10 11 12 13 14 15 16 17 18 19 20 21 22 23 24 25 26 27 28 29 30 31 32 33 34 35 36 37 38 39 40 41 42 43 44 45 46 47 48 49 50

125
ASUS43 KIND 231559
RWRIN

WEATHER ROUNDUP FOR INDIANA
NATIONAL WEATHER SERVICE INDIANAPOLIS IN
1200 PM EDT SUN APR 23 2017

NOTE: "FAIR" INDICATES FEW OR NO CLOUDS BELOW 12,000 FEET WITH NO
SIGNIFICANT WEATHER AND/OR OBSTRUCTIONS TO VISIBILITY.

* - STATION DOES NOT REPORT WEATHER SUCH AS PRECIPITATION OR FOG.

+ - STATION NOT QUALITY CONTROLLED BY THE NATIONAL WEATHER SERVICE.
    USE DATA WITH CAUTION...ESPECIALLY DEWPOINT AND RELATIVE
    HUMIDITY OBSERVATIONS.

INZ001>003-010>013-019-020-231700-
NORTHWEST INDIANA

CITY           SKY/WX    TMP DP  RH WIND       PRES   REMARKS
GARY /AIRPORT/ SUNNY     63  25  23 N8        30.14S
KNOX *+        SUNNY     61   5  11 NE10      30.12S
MONTICELLO +   SUNNY     60  31  32 NE8       30.10F

$$

LMZ046-743>745-231700-
SOUTHERN LAKE MICHIGAN

STATION/POSITION TIME  TEMP    WIND        PRES    WAVE
                       AIR SEA DIR/SP/G            HT
                 (UTC) (F)     (DEG/KT/KT) (MB)    (FT)
BURNS HARBOR     1540   49      20/  4/  4 1021.0S
MICHIGAN CITY    1530   51     350/  4/  5   N/A

$$

INZ004-005-014>016-021>024-231700-
NORTH CENTRAL INDIANA

CITY           SKY/WX    TMP DP  RH WIND       PRES   REMARKS
ELKHART        SUNNY     63  30  29 N6        30.12S
GOSHEN         SUNNY     61  34  36 E8        30.11F
PERU/GRISSOM   SUNNY     60  35  39 NE8       30.09S
SOUTH BEND     SUNNY     62  35  36 N7        30.12F
WARSAW +       SUNNY     61  36  39 E7        30.11F

$$

INZ006>009-017-018-025>027-231700-
NORTHEAST INDIANA

CITY           SKY/WX    TMP DP  RH WIND       PRES   REMARKS
ANGOLA *+      SUNNY     61  52  72 E5        30.10F
AUBURN +       SUNNY     61  32  33 NE6       30.12S
FORT WAYNE     SUNNY     60  35  39 NE13      30.11S
HUNTINGTON +   SUNNY     58  32  37 NE8       30.11S
KENDALLVILLE + SUNNY     61  35  39 E5        30.11F

$$

INZ028-029-035-036-043>045-051>053-231700-
WEST CENTRAL INDIANA

CITY           SKY/WX    TMP DP  RH WIND       PRES   REMARKS
CRAWFORDSVL +  SUNNY     58  33  39 NE13      30.10R
LAFAYETTE      SUNNY     58  35  42 NE13      30.10S
TERRE HAUTE    LGT RAIN  61  32  33 NE16G23   30.07F

$$

INZ030>032-037>040-046>048-054>057-064-065-231700-
CENTRAL INDIANA

CITY           SKY/WX    TMP DP  RH WIND       PRES   REMARKS
CP ATTERBURY + SUNNY     59  36  41 NE15G21   30.07F
COLUMBUS       SUNNY     57  30  35 NE17      30.07S
FRANKFORT +    SUNNY     62  31  30 E14       30.12R
GREENWOOD *+   SUNNY     60  36  40 NE14      30.08S
INDIANAPOLIS   MOSUNNY   59  34  39 NE9G20    30.08S
-EAGLE CREEK   SUNNY     60  33  36 NE13G21   30.08S
KOKOMO +       SUNNY     59  33  37 NE10G20   30.11S
SHELBYVILLE    SUNNY     63  35  35 NE16G23   30.06F

$$

INZ033-034-041-042-049-050-058-059-231700-
EAST CENTRAL INDIANA

CITY           SKY/WX    TMP DP  RH WIND       PRES   REMARKS
MUNCIE         SUNNY     61  32  33 E13       30.09S
RICHMOND +     SUNNY     57  34  41 NE16      30.08F

$$

INZ060-061-067>069-081>083-085>088-231700-
SOUTHWEST INDIANA

CITY           SKY/WX    TMP DP  RH WIND       PRES   REMARKS
EVANSVILLE     CLOUDY    60  42  51 NE15      30.00S
HUNTINGBURG *+ MOSUNNY   58  42  55 NE17      30.00S

$$

INZ062-063-066-070>080-084-089>092-231700-
SOUTH CENTRAL AND SOUTHEAST INDIANA

CITY           SKY/WX    TMP DP  RH WIND       PRES   REMARKS
BLOOMINGTON    SUNNY     62  36  37 NE16G22   30.04F
MADISON *+     SUNNY     59  37  44 NE14G23   30.01F
SEYMOUR +      SUNNY     63  39  42 NE17G26   30.02F

$$





USA.gov is the U.S. government's official web portal to all federal, state and local government web resources and services.